Regional Weather Roundup
Issued by NWS

Home | Current Version | Previous Version | Text Only | Print | Product List | Glossary On
Versions: 1 2 3 4 5 6 7 8 9 10 11 12 13 14 15 16 17 18 19 20 21 22 23 24 25 26 27 28 29 30 31 32 33 34 35 36 37 38 39 40 41 42 43 44 45 46 47 48 49 50
000
ASUS43 KLMK 280110
RWRKY
KENTUCKY REGIONAL WEATHER ROUNDUP
NATIONAL WEATHER SERVICE LOUISVILLE KY
900 PM EDT MON JUL 27 2015

NOTE "FAIR" INDICATES FEW OR NO CLOUDS BELOW 12,000 FEET
WITH NO SIGNIFICANT WEATHER AND/OR OBSTRUCTIONS TO VISIBILITY.

KYZ001>023-026-027-061>063-070>075-280200-
WESTERN AND SOUTH CENTRAL KENTUCKY

CITY           SKY/WX    TMP DP  RH WIND       PRES   REMARKS
PADUCAH        PTCLDY    85  78  80 W7        29.93R HX  96
HENDERSON      CLOUDY    79  72  78 CALM      29.92R
OWENSBORO      MOCLDY    86  77  74 VRB5      29.93R HX  97
HOPKINSVILLE   PTCLDY    80  73  78 SE7       29.94R
BOWLING GREEN  PTCLDY    84  74  71 SW6       29.95S HX  91
GLASGOW          N/A     82  73  76 CALM      29.95S
$$

KYZ024-025-028>034-038-045-046-053-280200-
NORTH CENTRAL KENTUCKY

CITY           SKY/WX    TMP DP  RH WIND       PRES   REMARKS
LOUISVILLE/SDF PTCLDY    86  74  67 SW6       29.92R HX  94
LOUISVILLE/LOU PTCLDY    86  73  65 SW3       29.93S HX  93
FORT KNOX      PTCLDY    81  77  85 CALM      29.93S
$$

KYZ035>037-039>044-047>052-055>060-089>105-280200-
NORTHEAST KENTUCKY

CITY           SKY/WX    TMP DP  RH WIND       PRES   REMARKS
LEXINGTON      PTCLDY    81  73  76 W3        29.97R
COVINGTON      MOCLDY    82  72  71 NE8       29.97R
FRANKFORT      PTCLDY    81  73  76 W3        29.95R
$$

KYZ054-064>069-076>088-106>120-280200-
SOUTHEAST KENTUCKY

CITY           SKY/WX    TMP DP  RH WIND       PRES   REMARKS
JACKSON        PTCLDY    77  72  84 CALM      30.00R
LONDON         HVY RAIN  78  68  71 W15G25    30.01R
SOMERSET       CLEAR     81  72  74 CALM      29.99R
MIDDLESBORO    CLOUDY    77  72  82 W3        30.02R
MONTICELLO     PTCLDY    79  78  96 CALM      30.01R
$$



USA.gov is the U.S. government's official web portal to all federal, state and local government web resources and services.